Location: ??????
(31.2031°N, 45.6084°E)
Time: 00:35:03
(UTC+00:00)

Daily predictions for brighter satellites

Satellite Brightness Start Highest point End
(mag) Time Altitude Azimuth Time Altitude Azimuth Time Altitude Azimuth
SL-16 R/B 3.2 00:57:48 42° E 00:57:48 42° E 01:02:28 10° SE
Cosmos 2034 Rocket 4.1 01:11:54 10° S 01:18:08 73° E 01:24:28 10° N
USA 234 4.3 01:17:11 10° NNE 01:20:55 30° N 01:20:55 30° N
Meteor 1-27 Rocket 4.0 01:24:17 38° N 01:26:35 68° E 01:32:24 10° SSE
ALOS 4.5 01:28:21 10° NE 01:32:11 25° E 01:36:00 10° SSE
Cosmos 2263 Rocket 2.6 01:29:48 10° S 01:35:18 61° ESE 01:40:47 10° NNE
Cosmos 407 Rocket 3.8 01:37:13 40° N 01:39:02 66° ENE 01:44:20 10° SSE
Lacrosse 5 2.3 01:42:36 46° SSW 01:42:36 46° SSW 01:46:35 10° SSE
Cosmos 1241 Rocket 4.3 01:41:25 51° NNW 01:43:09 88° WSW 01:49:22 10° SSE
STARLINK-72 4.5 01:44:27 41° SSE 01:44:27 41° SSE 01:47:13 10° SSE
Skynet4D Del rocket 4.2 01:43:57 44° SW 01:45:02 49° S 01:51:13 10° ESE
STARLINK-59 4.5 01:47:47 40° S 01:47:47 40° S 01:50:34 10° SSE
Centaur AC-42 4.2 01:43:34 21° SW 01:47:57 46° SSE 11:05:32 10° SE
STARLINK-55 4.4 01:50:55 40° S 01:50:55 40° S 01:53:48 10° SSE
STARLINK-28 4.4 01:52:33 39° S 01:52:33 39° S 01:55:26 10° SSE
Cosmos 2227 4.1 01:47:41 20° SSW 01:51:38 67° WNW 01:57:23 10° NNE
STARLINK-53 4.4 01:55:43 39° SSW 01:55:43 39° SSW 01:58:41 10° SSE
STARLINK-54 4.4 01:57:21 38° SSW 01:57:21 38° SSW 02:00:19 10° SSE
Cosmos 1461 4.4 01:57:21 19° N 01:59:48 34° ENE 02:03:51 10° SE
STARLINK-34 4.4 02:00:32 36° SSW 02:00:32 36° SSW 02:03:34 10° SSE
Okean 1-7 4.4 01:58:35 10° N 02:02:44 40° E 02:06:50 10° SSE
STARLINK-81 4.2 02:03:22 40° SSW 02:03:22 40° SSW 02:06:42 10° SSE
GEOS 3 Rocket 4.4 01:58:52 10° SE 02:03:41 46° NE 02:07:32 16° NNW
STARLINK-24 4.4 02:05:15 34° SSW 02:05:15 34° SSW 02:08:23 10° SSE
Cosmos 1484 Rocket 2.6 02:03:38 29° N 02:05:30 71° WNW 02:09:18 10° SSW
STARLINK-77 4.3 02:06:34 37° SW 02:06:34 37° SW 02:09:57 10° SSE
STARLINK-25 4.3 02:08:10 36° SW 02:08:10 36° SW 02:11:34 10° SSE
FENGYUN 3A 4.1 02:02:40 10° NNE 02:08:00 63° E 02:13:18 10° S
CZ-4C R/B 3.0 02:02:57 22° NNW 02:08:32 85° WSW 02:17:00 10° SSE
STARLINK-79 4.4 02:11:23 33° SW 02:11:23 33° SW 02:14:48 10° SSE
STARLINK-78 4.5 02:12:58 32° SW 02:12:58 32° SW 02:16:24 10° S
CZ-4B R/B 4.1 02:07:53 10° NNE 02:13:23 52° E 02:18:52 10° S
PSLV R/B 3.9 02:10:24 10° N 02:14:26 57° WNW 02:18:27 10° SSW
SWAS 4.3 02:11:18 10° SSW 02:15:34 66° WNW 02:19:51 10° NNE
Cosmos 2084 Rocket 3.9 02:15:23 22° NNW 02:18:09 60° ENE 02:22:28 10° SE
FALCON 9 R/B 3.7 02:14:14 28° WNW 02:18:52 76° N 02:47:33 10° E
Meteor 1-25 Rocket 4.1 02:14:17 10° SSW 02:19:48 67° W 02:25:25 10° N
Orbus 7S? 2.7 02:15:39 10° SW 02:19:51 83° NW 02:22:27 10° NE
Meteor 1-14 Rocket 4.4 02:17:12 10° S 02:23:04 86° E 02:29:05 10° N
COBE Rocket 4.4 02:19:24 10° SSW 02:23:54 36° W 02:25:41 27° NW
Cosmos 1943 4.0 02:20:54 10° N 02:26:22 52° ENE 02:31:49 10° SE
Nadezhda 4 Rocket 4.2 02:22:25 10° NNW 02:28:13 44° W 02:33:58 10° SSW
METEOR-M 4.0 02:23:52 10° N 02:29:13 76° WNW 02:34:33 10° SSW
Geosat 4.1 02:24:22 10° SSE 02:29:22 77° ENE 02:34:24 10° NNW
COSMO-SKYMED 1 2.4 02:25:26 10° S 02:29:45 77° WSW 02:34:06 10° NNW
PAYLOAD B 4.1 02:25:03 10° N 02:30:34 77° WNW 02:36:06 10° SSW
Cosmos 1190 Rocket 4.4 02:28:33 21° NW 02:31:32 41° WSW 02:36:25 10° S
Cosmos 676 Rocket 3.9 02:28:07 10° NNW 02:33:22 74° WSW 02:38:38 10° S
Cosmos 1346 Rocket 2.7 02:30:31 10° S 02:34:22 83° E 02:38:14 10° N
SL-16 R/B 3.5 02:39:46 18° W 02:40:45 19° W 02:44:36 10° SW
Cosmos 1954 Rocket 4.0 02:37:41 10° NNW 02:42:54 63° WSW 02:48:07 10° S
Cosmos 1603 3.7 02:42:05 10° NNW 02:47:47 72° WSW 02:53:26 10° S
SJ-7 4.3 02:43:53 10° NNE 02:47:53 88° E 02:51:51 10° SSW
Okean O Rocket 1.6 02:44:35 10° N 02:48:55 58° WNW 02:53:14 10° SSW
Cosmos 1703 Rocket 4.0 02:45:38 10° NNW 02:49:47 40° W 02:53:52 10° SSW
Cosmos 1733 Rocket 3.9 02:45:55 10° S 02:50:06 53° E 02:54:19 10° NNE
Cosmos 2026 Rocket 4.0 02:44:09 10° N 02:50:18 71° W 02:56:33 10° S
Cosmos 371 Rocket 3.4 02:47:18 10° S 02:52:07 80° ESE 02:56:58 10° NNE
Cosmos 2279 Rocket 3.9 02:46:46 10° S 02:52:55 74° W 02:59:08 10° N
Okean 3 4.4 02:52:37 10° N 02:56:41 50° E 03:00:46 10° SSE
Cosmos 44 3.4 02:54:40 10° SW 02:59:23 49° WNW 03:03:53 10° NNE
Cosmos 1869 Rocket 4.4 02:55:45 10° SW 02:59:27 28° W 03:03:10 10° NNW
SMAP 3.8 02:55:55 10° NNE 03:00:30 57° E 03:05:04 10° S
Cosmos 1741 Rocket 4.4 02:56:47 10° N 03:01:59 69° ENE 03:07:10 10° SSE
SL-24 R/B 4.4 02:59:54 10° SSE 03:04:38 76° ENE 03:08:55 10° N
Cosmos 1340 3.6 03:05:57 10° SW 03:09:08 26° WNW 03:12:21 10° NNW
ALOS 3.3 03:05:42 10° NNW 03:09:27 24° WNW 03:13:11 10° SW
BREEZE-M DEB (TANK) 2.7 03:08:44 10° WSW 03:10:58 51° NW 03:14:16 10° NE
IRS-1C Rocket 4.3 03:06:24 10° NNE 03:11:41 78° ESE 03:16:55 10° S
Cosmos 1500 3.2 03:08:21 10° S 03:12:11 88° W 03:16:02 10° N
STARLINK 1027 4.4 03:11:09 10° NNW 03:13:44 28° NE 03:16:19 10° ESE
STARLINK 1028 4.4 03:11:23 10° NNW 03:13:58 28° NE 03:16:33 10° ESE
CZ-4 R/B 4.4 03:11:34 10° NE 03:14:05 16° E 03:16:38 10° SE
STARLINK 1021 4.4 03:11:36 10° NNW 03:14:11 28° NE 03:16:46 10° ESE
FALCON 9 DEB 3.2 03:12:01 10° NNW 03:14:15 40° NE 03:16:29 10° ESE
STARLINK 1019 4.4 03:11:47 10° NNW 03:14:25 28° NE 03:17:02 10° ESE
STARLINK 1012 4.4 03:12:03 10° NNW 03:14:39 28° NE 03:17:14 10° ESE
STARLINK 1010 4.4 03:12:15 10° NNW 03:14:52 28° NE 03:17:27 10° ESE
STARLINK 1026 4.4 03:12:28 10° NNW 03:15:05 28° NE 03:17:40 10° ESE
STARLINK 1013 4.3 03:12:42 10° NNW 03:15:19 29° NE 03:17:55 10° ESE
STARLINK 1009 4.3 03:12:55 10° NNW 03:15:32 29° NE 03:18:08 10° ESE
STARLINK 1015 4.3 03:13:07 10° NNW 03:15:45 29° NE 03:18:21 10° ESE
STARLINK 1016 4.3 03:13:22 10° NNW 03:16:00 29° NE 03:18:37 10° ESE
STARLINK 1008 4.3 03:13:35 10° NNW 03:16:13 29° NE 03:18:50 10° ESE
STARLINK 1014 4.3 03:13:48 10° NNW 03:16:26 30° NE 03:19:03 10° ESE
STARLINK 1034 4.3 03:13:59 10° NNW 03:16:39 30° NE 03:19:19 10° ESE
STARLINK 1025 4.3 03:14:02 10° NNW 03:16:40 30° NE 03:19:17 10° ESE
STARLINK 1017 4.3 03:14:16 10° NNW 03:16:55 30° NE 03:19:32 10° ESE
STARLINK 1023 4.3 03:14:28 10° NNW 03:17:07 30° NE 03:19:45 10° ESE
STARLINK 1007 4.3 03:14:41 10° NNW 03:17:20 30° NE 03:19:58 10° ESE
STARLINK 1052 4.3 03:14:46 10° NNW 03:17:26 30° NE 03:20:04 10° ESE
STARLINK 1048 4.2 03:14:54 10° NNW 03:17:33 30° NE 03:20:11 10° ESE
STARLINK 1049 4.2 03:15:09 10° NNW 03:17:48 31° NE 03:20:27 10° ESE
STARLINK 1051 4.2 03:15:21 10° NNW 03:18:00 31° NE 03:20:40 10° ESE
STARLINK 1037 4.2 03:15:35 10° NNW 03:18:15 31° NE 03:20:54 10° ESE
STARLINK 1059 4.2 03:15:48 10° NNW 03:18:28 31° NE 03:21:07 10° ESE
STARLINK 1057 4.2 03:16:01 10° NNW 03:18:41 31° NE 03:21:21 10° ESE
STARLINK 1068 4.2 03:16:28 10° NNW 03:19:09 32° NE 03:21:49 10° ESE
STARLINK 1029 4.2 03:16:42 10° NNW 03:19:23 32° NE 03:22:03 10° ESE
Cosmos 2263 Rocket 3.6 03:16:30 10° W 03:19:35 15° WNW 03:22:41 10° NNW
STARLINK 1060 4.2 03:16:54 10° NNW 03:19:35 32° NE 03:22:16 10° ESE
STARLINK 1030 4.2 03:17:06 10° NNW 03:19:50 33° NE 03:22:32 10° ESE
Cosmos 1515 3.6 03:16:23 10° N 03:20:12 78° W 03:24:00 10° S
Okean 1 4.3 03:16:52 10° NNW 03:20:16 27° W 03:23:39 10° SSW
Cosmos 1655 Rocket 4.1 03:14:07 10° N 03:20:21 88° W 03:26:35 10° S
Cosmos 1850 Rocket 4.1 03:16:55 10° NNW 03:22:15 70° WSW 03:27:32 10° S
